{"data":{"norad_id":68070,"epoch":"2026-05-24T14:00:52.761600Z","epoch_age_seconds":104785,"freshness":"FRESH","line1":"1 68070U 26042B   26144.58394400  .00017807  00000+0  53697-3 0  9990","line2":"2 68070  53.1588 183.4127 0001155  73.5291 286.5839 15.34395597 13969","mean_motion":15.34395597,"eccentricity":0.0001155,"inclination_deg":53.1588,"raan_deg":183.4127,"arg_perigee_deg":73.5291,"mean_anomaly_deg":286.5839,"bstar":0.00053697,"rev_number":1396,"period_min":93.848027380647,"perigee_km":461.92620832303,"apogee_km":463.50644544154,"semimajor_km":6840.8533268823,"source":"CELESTRAK","updated_at":"2026-05-25T13:38:21.817269Z"}}